Location: Maiden
(35.5760°N, 81.2120°W)
Time: 03:40:51
(UTC-04:00)

Vanguard 2 - Pass Details

Date: 05 August 2020
Orbit: 553 x 2937 km, 32.9° (Epoch: 20 September)

Event Time Altitude Azimuth Distance (km) Brightness Sun altitude
Rises 22:44:20 0° 238° (WSW) 6,679 12.5 -24.6°
Reaches altitude 10° 22:49:09 10° 235° (SW) 5,496 11.9 -25.3°
Maximum altitude 23:04:22 59° 162° (SSE) 2,310 9.5 -27.4°
Enters shadow 23:08:40 40° 106° (ESE) 2,473 9.6 -27.9°
Drops below altitude 10° 23:13:57 10° 86° (E) 3,602 - -28.6°
Sets 23:16:27 0° 82° (E) 4,313 - -28.9°
